Location: Franzen
(48.6167°N, 15.3833°E)
Time: 07:02:31
(UTC+00:00)

Cosmos 1709 Rocket - Pass Details

Date: 07 August 2021
Orbit: 947 x 1002 km, 82.9° (Epoch: 18 September)

Event Time Altitude Azimuth Distance (km) Brightness Sun altitude
Exits shadow 20:47:04 14° 96° (E) 2,463 5.7 -18.4°
Maximum altitude 20:48:52 16° 77° (ENE) 2,359 5.8 -18.6°
Drops below altitude 10° 20:52:30 10° 42° (NE) 2,785 6.6 -18.9°
Sets 20:56:05 0° 22° (NNE) 3,740 7.6 -19.2°
